Find Starlink 5399

NORAD ID: 54788 Int'l Des: 2022-175 Owner: SPXS Country: US Constellation: starlink operational
LEOCIRCULAR

Live Position

Loading 3D Globe...

About Starlink 5399

Description loading...

Upcoming Passes

Passes for default location (London). Set your location on the main map for personalized predictions.

Altitude History

Loading altitude history...

Two-Line Element Set

1 54788U 22175AG 26126.33341128 .00000494 00000-0 49148-4 0 9998
2 54788 53.2160 130.2147 0001247 81.6355 278.4779 15.08840484188835
Epoch: May 6, 2026 • Age: 14 hours

Current Status

Altitude 557.9 km
Velocity 7.58 km/s
Sub-Earth Point -50.18°S, 178.41°E
Launch Date Dec 17, 2022
Age 3.3 years
Type internet

Technical Details

Classification Payload
Mass 305.00 kg
Dry Mass 290.00 kg
Total Mass 305.00 kg
Length 0.20 m
Diameter 2.80 m
Span 9.00 m
Shape Box + pan
Manufacturer SPXS
Bus Type Starlink
Phase Status In Orbit
Owner/State SPXS/US

Most Searched